Glendale Luke AFB, AZ

5:26 PM MST on November 12, 2019 (GMT -0700)
Luke Air Force Base

Weather History for KLUF - September, 2019

Change the Weather History Date:

Wednesday, September 11, 2019

  Actual Average Record
Temperature  
Mean Temperature 85 °F -  
Max Temperature 95 °F 101 °F 112 °F (1971)
Min Temperature 75 °F 68 °F 52 °F (1920)
Cooling Degree Days 20    
Growing Degree Days 35 (Base 50)    
Moisture  
Dew Point 55 °F    
Average Humidity 37    
Maximum Humidity 54    
Minimum Humidity 24    
Precipitation  
Precipitation 0.00 in - - ()
Sea Level Pressure  
Sea Level Pressure 29.85 in    
Wind  
Wind Speed 4 mph (West)    
Max Wind Speed 10 mph    
Max Gust Speed -    
Visibility 10 miles    
Events      
Averages and records for this station are not official NWS values.
T = Trace of Precipitation, MM = Missing Value Source: NWS Daily Summary

Daily Weather History Graph

Daily Weather History Graph

Search for Another Location

Airport or City:

Astronomy

Sep. 11, 2019 Rise Set
Actual Time 6:10 AM MST 6:41 PM MST
Civil Twilight 5:45 AM MST 7:06 PM MST
Nautical Twilight 5:15 AM MST 7:35 PM MST
Astronomical Twilight 4:45 AM MST 8:05 PM MST
Moon 5:47 PM MST (9/11) 3:46 AM MST (9/11)
Length of Visible Light 13h 21m
Length of Day
12h 31m
Waxing Gibbous, 95% of the Moon is Illuminated
Sep 11
Waxing Gibbous
Sep 13
Full
Sep 21
Last Quarter
Sep 28
New
Oct 5
First Quarter

Hourly Weather History & Observations

Time (MST) Temp. Heat Index Dew Point Humidity Pressure Visibility Wind Dir Wind Speed Gust Speed Precip Events Conditions
12:58 AM 81.1 °F - 51.6 °F 36% 29.82 in 10.0 mi SW 3.5 mph - N/A   Clear
1:58 AM 80.2 °F - 49.3 °F 34% 29.82 in 10.0 mi Calm Calm - N/A   Clear
2:58 AM 80.1 °F - 50.0 °F 35% 29.83 in 10.0 mi West 5.8 mph - N/A   Clear
3:58 AM 79.7 °F - 51.8 °F 38% 29.84 in 10.0 mi West 4.6 mph - N/A   Mostly Cloudy
4:08 AM 78.8 °F - 53.6 °F 42% 29.85 in 10.0 mi Calm Calm - N/A   Scattered Clouds
4:28 AM 77.0 °F - 53.6 °F 44% 29.85 in 10.0 mi North - - N/A   Mostly Cloudy
4:58 AM 76.8 °F - 52.0 °F 42% 29.85 in 10.0 mi NNW 6.9 mph - N/A   Mostly Cloudy
5:38 AM 75.2 °F - 53.6 °F 47% 29.87 in 10.0 mi NNE 4.6 mph - N/A   Partly Cloudy
5:58 AM 76.1 °F - 55.6 °F 49% 29.87 in 10.0 mi North 4.6 mph - N/A   Clear
6:58 AM 77.0 °F - 59.0 °F 54% 29.89 in 10.0 mi NE 4.6 mph - N/A   Clear
7:59 AM 82.4 °F 82.0 °F 57.2 °F 42% 29.91 in 10.0 mi NE 5.8 mph - N/A   Scattered Clouds
8:58 AM 84.0 °F 85.4 °F 63.9 °F 51% 29.92 in 10.0 mi SSE 4.6 mph - N/A   Scattered Clouds
10:57 AM 86.4 °F 86.8 °F 61.9 °F 44% 29.91 in 10.0 mi SE 6.9 mph - N/A   Scattered Clouds
11:55 AM 88.9 °F 88.5 °F 59.9 °F 38% 29.90 in 10.0 mi Variable 3.5 mph - N/A   Scattered Clouds
1:58 PM 90.9 °F 89.7 °F 57.7 °F 33% 29.86 in 10.0 mi East 3.5 mph - N/A   Partly Cloudy
2:58 PM 93.7 °F 92.0 °F 55.6 °F 28% 29.83 in 10.0 mi SW 5.8 mph - N/A   Partly Cloudy
3:58 PM 94.1 °F 92.2 °F 54.9 °F 27% 29.81 in 10.0 mi SW 5.8 mph - N/A   Partly Cloudy
4:58 PM 95.0 °F - 52.5 °F 24% 29.80 in 10.0 mi WSW 10.4 mph - N/A   Clear
5:58 PM 94.1 °F - 52.9 °F 25% 29.80 in 10.0 mi SSW 8.1 mph - N/A   Clear
6:58 PM 93.0 °F 90.6 °F 53.1 °F 26% 29.80 in 10.0 mi SSW 6.9 mph - N/A   Clear
7:58 PM 91.0 °F 88.9 °F 54.3 °F 29% 29.82 in 10.0 mi West 3.5 mph - N/A   Clear
8:58 PM 87.4 °F 86.3 °F 57.2 °F 36% 29.83 in 10.0 mi NW 6.9 mph - N/A   Clear
9:58 PM 85.8 °F 84.5 °F 55.8 °F 36% 29.85 in 10.0 mi NNW 4.6 mph - N/A   Clear
10:58 PM 83.3 °F 82.6 °F 56.5 °F 40% 29.86 in 10.0 mi NNW 5.8 mph - N/A   Clear
11:58 PM 84.9 °F 83.3 °F 53.4 °F 34% 29.87 in 10.0 mi SSW 3.5 mph - N/A   Clear